[[{"header":{"parameterUnit":"m.s-1","parameterCategory":1,"la1":30.2991,"la2":30.254,"lo1":-89.0895,"lo2":-89.0444,"dy":0.0017,"dx":0.0017,"nx":28,"ny":28,"refTime":"2025-06-13T03:00:00:Z","depth":0,"parameterNumber":2,"parameterNumberName":"U-component_of_WINDS"},"data":[0,0,0,0,0,0,0,0,0,0,0,0,0,0,0,0,0,0,0,0,0,0,0,0,0,0,0,0,0,0,0,0,0,0,0,0,0,0,0,0,0,0,0,0,0,0,0,0,0,0,0,0,0,0,0,0,0,0,0.8916,0.8917,0,0.9012,0.9013,0.9014,0.9,0.8999,0.8997,0.8996,0.9097,0.9101,0.9105,0,0,0,0,0,0,0,0,0,0,0,0,0,0.8722,0.8726,0.8916,0.8917,0.8918,0.9012,0.9013,0.9014,0.9001,0.8999,0.8997,0.8995,0.9095,0.91,0.9105,0,0,0,0,0,0,0,0,0,0,0,0,0,0.8811,0.8727,0.8916,0.8923,0.8924,0.9011,0.9013,0.9015,0.9001,0.8999,0.8996,0.8994,0.9094,0.91,0.9106,0.9193,0,0,0.9125,0.9128,0,0,0,0,0,0,0,0,0.8806,0.8818,0.892,0.8922,0.8924,0.8992,0.8982,0.9074,0.9002,0.8972,0.8996,0.8993,0.9064,0.9072,0.9096,0.9198,0.9202,0.9126,0.9129,0.9132,0.9134,0,0,0,0,0,0,0,0.88,0.8814,0.8954,0.8922,0.8924,0.8921,0.8931,0.8999,0.903,0.8974,0.8974,0.8985,0.9064,0.909,0.9098,0.9203,0.9125,0.9131,0.9135,0.9137,0.938,0.9382,0,0,0,0,0,0,0.8792,0.8809,0.8951,0.8957,0.8858,0.8927,0.8938,0.8972,0.903,0.9036,0.8987,0.8984,0.908,0.9091,0.9101,0.9206,0.9132,0.9138,0.9141,0.9377,0.938,0.9383,0,0,0,0,0,0,0.8788,0.8805,0.8947,0.8883,0.8901,0.8933,0.8972,0.8976,0.9001,0.9039,0.9045,0.9007,0.9079,0.9093,0.917,0.9209,0.9141,0.9146,0.9374,0.9378,0.9382,0.9417,0,0,0,0,0,0,0.8782,0.8803,0.8836,0.8884,0.8904,0.9013,0.8974,0.8979,0.9011,0.9008,0.9059,0.9065,0.9078,0.916,0.9176,0.9217,0.9151,0.9371,0.9376,0.938,0.9412,0.9421,0.9429,0,0,0,0,0,0.8775,0.8843,0.8838,0.8855,0.8946,0.9016,0.9027,0.904,0.9015,0.9048,0.9073,0.9064,0.9202,0.9168,0.9186,0.9229,0.9368,0.9374,0.938,0.9408,0.9419,0.9429,0,0,0,0,0,0,0.8802,0.885,0.8845,0.893,0.8968,0.9013,0.9056,0.9051,0.9099,0.9094,0.9108,0.9119,0.9197,0.9221,0.9182,0.9315,0.9282,0.9292,0.9297,0.9308,0.9317,0.9309,0.9157,0,0,0,0,0,0.8817,0.8869,0.8908,0.898,0.8999,0.9024,0.9055,0.9061,0.9102,0.9119,0.9148,0.9189,0.9242,0.9276,0.9327,0.9415,0.9426,0.9453,0.9462,0.9469,0.9477,0.9524,0.9537,0.9403,0.9403,0.9403,0,0,0.885,0.8883,0.8915,0.8986,0.9016,0.907,0.9038,0.9097,0.9136,0.9128,0.9202,0.9225,0.9271,0.9354,0.9392,0.9376,0.9516,0.9476,0.9482,0.9486,0.9532,0.9544,0.9556,0.9407,0.9406,0.9406,0,0,0.8937,0.8967,0.9029,0.906,0.9106,0.9122,0.9137,0.9182,0.9197,0.9271,0.9265,0.9313,0.9404,0.9436,0.9465,0.9562,0.9556,0.9578,0.9624,0.9669,0.968,0.9689,0.9723,0.9735,0.9587,0.9587,0.9587,0,0.8972,0.9052,0.9062,0.912,0.9151,0.9144,0.9207,0.9237,0.9298,0.932,0.9301,0.9413,0.9444,0.9533,0.9557,0.9581,0.9598,0.9573,0.9677,0.9687,0.9696,0.9728,0.9741,0.9589,0.9589,0.9589,0.9588,0,0.9093,0.9148,0.9193,0.925,0.9286,0.9347,0.9366,0.9401,0.9403,0.9421,0.9496,0.9532,0.959,0.9611,0.9615,0.9701,0.969,0.9674,0.9641,0.9711,0.9742,0.9754,0.9593,0.9592,0.9591,0.959,0,0,0.92,0.9261,0.9277,0.9302,0.9352,0.9395,0.9455,0.9509,0.9539,0.9581,0.9631,0.9707,0.9692,0.9725,0.9731,0.9772,0.9845,0.9751,0.9752,0.9767,0.9942,0.9953,0.9967,0.9841,0.9843,0.9845,0.9937,0,0.9291,0.9396,0.9406,0.95,0.9551,0.9544,0.9596,0.9632,0.965,0.9696,0.9716,0.9769,0.9746,0.9765,0.9805,0.9828,0.988,0.9821,0.9888,0.989,0.9876,0.9983,0.9996,1.0081,0.995,0.9952,0.9953,0,0.9413,0.9456,0.9555,0.9596,0.9618,0.9664,0.9714,0.9758,0.9799,0.9809,0.9844,0.9845,0.9906,0.987,0.9954,0.9914,0.9941,0.9957,0.996,0.9967,0.9926,0.9993,1.0109,1.0122,0.9972,0.9971,0.9969,0,0.948,0.9564,0.9633,0.9655,0.9705,0.9738,0.976,0.9798,0.983,0.9874,0.9894,0.9945,0.9973,1.0013,1.0027,0.9999,1.0111,1.0076,1.0121,1.012,1.0145,1.0143,1.0267,1.0163,1.0163,1.0162,1.0162,0,0.9581,0.9642,0.9664,0.9707,0.9774,0.9785,0.9851,0.9872,0.9906,0.9952,0.995,0.9994,1.001,1.0057,1.0069,1.0136,1.0149,1.0159,1.0161,1.0159,1.0158,1.0178,1.0172,1.0166,1.0165,1.0164,1.0164,0,0.9668,0.9686,0.9761,0.9801,0.9813,0.986,0.9895,0.9936,0.9953,1.0012,1.0026,1.0053,1.0107,1.0125,1.0192,1.02,1.0278,1.0276,1.0264,1.0265,1.0308,1.0304,1.0449,1.0468,1.0352,1.0353,1.0354,0,0.9731,0.9777,0.9822,0.9853,0.9876,0.9926,0.9957,0.9969,1.0003,1.0051,1.0086,1.014,1.0184,1.0271,1.0297,1.0347,1.0345,1.0393,1.0353,1.0349,1.0346,1.0343,1.0347,1.04,1.0402,1.0403,1.0403,0,0.9842,0.9847,0.9893,0.9941,0.9979,1.0018,1.0055,1.0081,1.0098,1.0135,1.019,1.0224,1.0291,1.0344,1.0395,1.0419,1.0414,1.0415,1.0428,1.0427,1.0418,1.0423,1.0284,1.0412,1.0411,1.0411,1.041,1.041,0.9918,0.9958,0.9996,1.0046,1.0075,1.011,1.015,1.0171,1.0217,1.0271,1.0276,1.0335,1.0373,1.0441,1.0467,1.0513,1.05,1.0519,1.0524,1.0528,1.0531,1.041,1.0523,1.0523,1.0522,1.0522,1.0522,0,1.0028,1.0051,1.0097,1.0149,1.0189,1.0179,1.022,1.0254,1.0306,1.0341,1.0384,1.0446,1.0497,1.0526,1.0577,1.0609,1.0608,1.0622,1.062,1.0625,1.0541,1.0524,1.0622,1.0622,1.0622,1.0621,1.0621,1.0621,1.0089,1.0156,1.0166,1.0248,1.0271,1.0328,1.0352,1.0383,1.0412,1.0481,1.0523,1.0541,1.0574,1.0627,1.0673,1.068,1.0699,1.0715,1.072,1.0641,1.0631,1.0621,1.0606,1.0719,1.0719,1.08,1.0801,1.0802]},{"header":{"parameterUnit":"m.s-1","parameterCategory":1,"la1":30.2991,"la2":30.254,"lo1":-89.0895,"lo2":-89.0444,"dy":0.0017,"dx":0.0017,"nx":28,"ny":28,"refTime":"2025-06-13T03:00:00:Z","depth":0,"parameterNumber":3,"parameterNumberName":"V-component_of_WINDS"},"data":[0,0,0,0,0,0,0,0,0,0,0,0,0,0,0,0,0,0,0,0,0,0,0,0,0,0,0,0,0,0,0,0,0,0,0,0,0,0,0,0,0,0,0,0,0,0,0,0,0,0,0,0,0,0,0,0,0,0,5.1698,5.1699,0,5.1778,5.1779,5.178,5.1717,5.1714,5.1712,5.1709,5.1786,5.179,5.1795,0,0,0,0,0,0,0,0,0,0,0,0,0,5.1484,5.1488,5.1698,5.1699,5.17,5.1778,5.1779,5.178,5.1717,5.1714,5.1711,5.1708,5.1784,5.179,5.1795,0,0,0,0,0,0,0,0,0,0,0,0,0,5.1571,5.1489,5.1698,5.1678,5.1677,5.1778,5.1779,5.178,5.1718,5.1714,5.171,5.1706,5.1782,5.1789,5.1796,5.1918,0,0,5.1817,5.182,0,0,0,0,0,0,0,0,5.1566,5.1579,5.168,5.168,5.1679,5.1734,5.1731,5.1826,5.1719,5.1703,5.1709,5.1704,5.1771,5.1779,5.1802,5.1922,5.1925,5.1817,5.1821,5.1824,5.1826,0,0,0,0,0,0,0,5.156,5.1575,5.1729,5.1682,5.1681,5.1663,5.1671,5.1749,5.1758,5.1704,5.1699,5.171,5.177,5.1796,5.1804,5.1926,5.1817,5.1823,5.1827,5.183,5.2146,5.215,0,0,0,0,0,0,5.1557,5.1571,5.1727,5.1732,5.1612,5.167,5.1679,5.172,5.1757,5.1759,5.1713,5.1707,5.1786,5.1796,5.1806,5.195,5.1824,5.1831,5.1834,5.2142,5.2147,5.2152,0,0,0,0,0,0,5.1553,5.1572,5.1724,5.165,5.1668,5.1678,5.1724,5.1724,5.175,5.1765,5.1765,5.1739,5.1784,5.1797,5.189,5.1952,5.1834,5.184,5.2137,5.2144,5.215,5.224,0,0,0,0,0,0,5.1547,5.1571,5.1619,5.1652,5.1672,5.1809,5.1728,5.1728,5.1762,5.1754,5.1789,5.179,5.1781,5.1881,5.1897,5.1959,5.1845,5.2131,5.214,5.2148,5.2232,5.2249,5.2264,0,0,0,0,0,5.154,5.1641,5.1622,5.1641,5.1734,5.1813,5.1824,5.1814,5.1767,5.1815,5.1824,5.1789,5.1943,5.1891,5.1909,5.1974,5.2128,5.2138,5.2147,5.2225,5.2246,5.2264,0,0,0,0,0,0,5.1614,5.1645,5.1624,5.174,5.1774,5.1802,5.1862,5.1837,5.1884,5.1874,5.1857,5.1865,5.1964,5.1978,5.192,5.2093,5.2027,5.2041,5.208,5.21,5.2116,5.211,5.1851,0,0,0,0,0,5.1644,5.1708,5.1731,5.183,5.1849,5.1853,5.1887,5.1875,5.191,5.1924,5.194,5.1973,5.2028,5.2065,5.2117,5.2233,5.2238,5.2287,5.2303,5.2316,5.2328,5.2388,5.2409,5.2184,5.2184,5.2184,0,0,5.1706,5.1731,5.1772,5.1846,5.1871,5.1935,5.1865,5.1937,5.1983,5.1934,5.2024,5.2036,5.2072,5.2177,5.2224,5.2192,5.2391,5.2328,5.2338,5.2343,5.24,5.2422,5.244,5.2191,5.2189,5.2188,0,0,5.1853,5.1879,5.1964,5.1991,5.203,5.2032,5.2052,5.2084,5.2091,5.2181,5.2144,5.2198,5.2294,5.232,5.2346,5.25,5.2469,5.2517,5.2601,5.266,5.2677,5.2693,5.2746,5.2766,5.2529,5.2529,5.2529,0,5.1925,5.2023,5.201,5.2084,5.2116,5.2075,5.2159,5.2185,5.2239,5.2261,5.2224,5.2343,5.2364,5.2474,5.2511,5.2534,5.2554,5.2513,5.2676,5.2692,5.2706,5.2756,5.2777,5.2535,5.2534,5.2534,5.2533,0,5.2108,5.2176,5.2239,5.2294,5.2333,5.2411,5.2408,5.2449,5.2433,5.2438,5.2528,5.2552,5.2607,5.2632,5.2617,5.2739,5.2717,5.2679,5.2613,5.2733,5.278,5.28,5.2543,5.2541,5.2539,5.2538,0,0,5.2306,5.2351,5.2374,5.2397,5.2437,5.2488,5.2563,5.2618,5.2652,5.269,5.2751,5.2832,5.2796,5.2825,5.2813,5.2865,5.2983,5.2819,5.282,5.2848,5.3116,5.3144,5.3167,5.2962,5.2966,5.2969,5.3112,0,5.2453,5.2586,5.2576,5.2701,5.2762,5.2722,5.2787,5.2817,5.2822,5.2873,5.2878,5.2935,5.2884,5.2901,5.2951,5.2958,5.3036,5.2947,5.3017,5.3019,5.3009,5.3192,5.3223,5.3358,5.3131,5.3134,5.3136,0,5.2644,5.2689,5.282,5.2848,5.2873,5.2933,5.2981,5.303,5.3062,5.3062,5.3094,5.3072,5.3144,5.3077,5.3175,5.3115,5.3143,5.315,5.3155,5.3161,5.3085,5.3202,5.3401,5.3421,5.3165,5.3163,5.3161,0,5.2773,5.2866,5.2957,5.2978,5.3013,5.3055,5.3071,5.3099,5.3132,5.3173,5.3194,5.3243,5.3269,5.3306,5.3297,5.3249,5.3397,5.3329,5.3397,5.3398,5.3431,5.3429,5.3636,5.3449,5.3449,5.3449,5.3448,0,5.2939,5.302,5.3015,5.3071,5.3159,5.3145,5.3233,5.3244,5.3268,5.3323,5.3291,5.3342,5.3327,5.3377,5.337,5.3452,5.3464,5.3465,5.3462,5.3468,5.3467,5.3485,5.3475,5.3454,5.3453,5.3452,5.3451,0,5.3099,5.3099,5.3194,5.322,5.3228,5.3292,5.3312,5.3363,5.3365,5.3435,5.345,5.3453,5.351,5.3504,5.3568,5.3563,5.3664,5.365,5.3654,5.365,5.3719,5.3712,5.3944,5.3973,5.3769,5.3771,5.3772,0,5.3205,5.3267,5.3298,5.3333,5.3353,5.341,5.3443,5.343,5.3466,5.3505,5.355,5.3605,5.3648,5.374,5.3747,5.3794,5.3781,5.3859,5.3788,5.3791,5.3781,5.3777,5.3782,5.3873,5.3875,5.3877,5.3878,0,5.3392,5.3388,5.3439,5.3489,5.3529,5.3568,5.3602,5.3632,5.3622,5.3663,5.3722,5.3755,5.382,5.3873,5.3918,5.3932,5.3903,5.3901,5.3919,5.3925,5.3925,5.3925,5.3691,5.3896,5.3894,5.3893,5.3892,5.3891,5.3527,5.358,5.361,5.3666,5.3691,5.3723,5.3772,5.378,5.3829,5.3882,5.387,5.3935,5.3962,5.402,5.4038,5.4087,5.4059,5.4086,5.4092,5.4099,5.4106,5.3917,5.4096,5.4095,5.4095,5.4094,5.4094,0,5.3712,5.3729,5.3781,5.3831,5.3874,5.3844,5.388,5.3918,5.3976,5.4004,5.4047,5.4113,5.4164,5.4174,5.4222,5.4259,5.4247,5.4272,5.4269,5.4272,5.413,5.4109,5.4281,5.4281,5.4281,5.4281,5.4281,5.4281,5.3813,5.39,5.3899,5.3996,5.4011,5.4076,5.4099,5.4128,5.415,5.4226,5.4268,5.4275,5.4295,5.4344,5.4388,5.439,5.4408,5.4439,5.4435,5.4301,5.4283,5.4265,5.4245,5.4443,5.4443,5.4573,5.4574,5.4575]}]]